[[{"header":{"parameterUnit":"m.s-1","parameterCategory":1,"la1":30.2991,"la2":30.254,"lo1":-89.0895,"lo2":-89.0444,"dy":0.0017,"dx":0.0017,"nx":28,"ny":28,"refTime":"2023-08-31T21:00:00:Z","depth":0,"parameterNumber":2,"parameterNumberName":"U-component_of_WINDS"},"data":[0,0,0,0,0,0,0,0,0,0,0,0,0,0,0,0,0,0,0,0,0,0,0,0,0,0,0,0,0,0,0,0,0,0,0,0,0,0,0,0,0,0,0,0,0,0,0,0,0,0,0,0,0,0,0,0,0,0,0.7637,0.7638,0,0.7753,0.7754,0.7756,0.7823,0.7824,0.7824,0.7824,0.7943,0.7946,0.7949,0,0,0,0,0,0,0,0,0,0,0,0,0,0.7471,0.7473,0.7636,0.7638,0.7639,0.7753,0.7754,0.7756,0.7823,0.7824,0.7824,0.7824,0.7942,0.7945,0.7949,0,0,0,0,0,0,0,0,0,0,0,0,0,0.756,0.7474,0.7636,0.7687,0.7692,0.7752,0.7754,0.7756,0.7823,0.7824,0.7824,0.7825,0.7941,0.7945,0.7949,0.7968,0,0,0.7963,0.7965,0,0,0,0,0,0,0,0,0.7555,0.7566,0.7678,0.7683,0.769,0.7774,0.7739,0.7827,0.7823,0.7774,0.7824,0.7825,0.7886,0.7895,0.7916,0.7974,0.7979,0.7963,0.7966,0.7968,0.7969,0,0,0,0,0,0,0,0.7549,0.7562,0.7683,0.7679,0.7687,0.7703,0.7716,0.7756,0.7826,0.7778,0.7783,0.7796,0.789,0.7912,0.7919,0.798,0.7963,0.7967,0.7969,0.7971,0.8057,0.8056,0,0,0,0,0,0,0.7535,0.7556,0.7679,0.7686,0.7622,0.7706,0.772,0.7747,0.7826,0.7839,0.7796,0.7799,0.7904,0.7914,0.7924,0.795,0.7968,0.7972,0.7974,0.8057,0.8057,0.8056,0,0,0,0,0,0,0.7531,0.7545,0.7674,0.7622,0.764,0.7708,0.7737,0.7749,0.7771,0.7839,0.7852,0.7805,0.7905,0.7918,0.7956,0.7955,0.7974,0.7978,0.8058,0.8057,0.8057,0.8002,0,0,0,0,0,0,0.7526,0.7543,0.7552,0.7622,0.7643,0.7705,0.7737,0.7751,0.7778,0.7784,0.7852,0.7864,0.7906,0.7949,0.796,0.7961,0.7981,0.8058,0.8057,0.8057,0.8004,0.7999,0.7995,0,0,0,0,0,0.752,0.7532,0.7552,0.7566,0.7655,0.7705,0.7716,0.7765,0.7778,0.7786,0.783,0.7861,0.7953,0.7953,0.7966,0.7968,0.8058,0.8058,0.8057,0.8006,0.8,0.7995,0,0,0,0,0,0,0.7459,0.7542,0.7565,0.76,0.7645,0.7716,0.7728,0.7758,0.78,0.7803,0.7862,0.7877,0.7909,0.7942,0.794,0.7989,0.8009,0.8011,0.7966,0.7961,0.7957,0.7948,0.7985,0,0,0,0,0,0.745,0.7484,0.7555,0.7579,0.76,0.766,0.7684,0.7717,0.7766,0.7785,0.7832,0.7877,0.7916,0.7941,0.798,0.8009,0.8024,0.8017,0.8012,0.8009,0.8009,0.8025,0.8022,0.8054,0.8054,0.8054,0,0,0.7431,0.7481,0.7499,0.7568,0.7607,0.764,0.7675,0.771,0.7735,0.779,0.7829,0.7864,0.7919,0.7952,0.7969,0.7981,0.8004,0.8008,0.8004,0.8007,0.8024,0.8021,0.8018,0.8053,0.8053,0.8054,0,0,0.7414,0.7456,0.748,0.7517,0.7575,0.7614,0.762,0.7686,0.7712,0.7752,0.7794,0.7824,0.789,0.7927,0.7954,0.7949,0.7979,0.796,0.7938,0.7953,0.795,0.7948,0.7945,0.7943,0.7961,0.7961,0.796,0,0.7384,0.7436,0.7488,0.752,0.7548,0.76,0.7624,0.7657,0.7725,0.7743,0.7755,0.7838,0.7879,0.792,0.7919,0.794,0.7947,0.7952,0.7946,0.7945,0.7944,0.7941,0.794,0.7958,0.7958,0.7958,0.7959,0,0.7395,0.743,0.7443,0.7506,0.7536,0.7564,0.7619,0.7643,0.7673,0.7711,0.775,0.78,0.785,0.7863,0.7893,0.7908,0.7913,0.7935,0.7957,0.7937,0.7936,0.7935,0.7954,0.7955,0.7956,0.7956,0,0,0.7344,0.7435,0.7438,0.7467,0.7533,0.7561,0.759,0.7639,0.7658,0.7702,0.7727,0.7781,0.7801,0.7832,0.7867,0.788,0.7871,0.7901,0.7903,0.7892,0.7888,0.787,0.7868,0.7891,0.7891,0.7891,0.7883,0,0.7335,0.7391,0.7437,0.7475,0.7507,0.7556,0.7581,0.7624,0.766,0.7692,0.7731,0.7768,0.7793,0.7811,0.7826,0.7869,0.7871,0.787,0.7914,0.7915,0.7898,0.7868,0.785,0.784,0.7883,0.7883,0.7883,0,0.7334,0.7375,0.7415,0.7477,0.7493,0.7514,0.7562,0.7592,0.7641,0.7666,0.77,0.7736,0.7768,0.7786,0.783,0.7828,0.7849,0.7872,0.7873,0.7878,0.7897,0.7871,0.7838,0.7836,0.7883,0.7883,0.7883,0,0.729,0.7357,0.7389,0.7412,0.7485,0.7499,0.753,0.758,0.7605,0.7647,0.7664,0.7708,0.7732,0.7765,0.7812,0.7821,0.785,0.7873,0.7871,0.787,0.7875,0.7873,0.7843,0.7889,0.7889,0.7889,0.7889,0,0.7275,0.7298,0.737,0.739,0.7416,0.7469,0.7493,0.7529,0.7572,0.7598,0.7644,0.7667,0.7728,0.7759,0.7796,0.7826,0.7837,0.7857,0.7866,0.7852,0.7849,0.7866,0.7868,0.7889,0.7889,0.7889,0.7889,0,0.7232,0.7281,0.7319,0.7385,0.7402,0.7418,0.7474,0.7494,0.7532,0.7565,0.7576,0.7635,0.7673,0.7723,0.7778,0.7803,0.7828,0.7843,0.7811,0.7816,0.7811,0.781,0.7789,0.7788,0.7836,0.7835,0.7835,0,0.7219,0.7237,0.7304,0.7325,0.7354,0.7388,0.7414,0.7467,0.7492,0.7548,0.7561,0.7603,0.7639,0.7698,0.7746,0.7787,0.7803,0.7793,0.781,0.7794,0.7801,0.7799,0.78,0.7788,0.7787,0.7787,0.7786,0,0.7189,0.7213,0.7249,0.7293,0.7322,0.736,0.7399,0.7413,0.7474,0.75,0.7539,0.7567,0.7622,0.7663,0.771,0.7742,0.7773,0.7781,0.7782,0.7768,0.7747,0.7757,0.7798,0.7781,0.7781,0.7782,0.7782,0.7782,0.716,0.7178,0.7227,0.7265,0.73,0.7335,0.7357,0.7397,0.7431,0.748,0.7509,0.7547,0.7594,0.7661,0.769,0.772,0.7733,0.7735,0.7736,0.7735,0.773,0.7743,0.7729,0.773,0.773,0.773,0.773,0,0.7132,0.7166,0.72,0.7253,0.7283,0.731,0.7355,0.7377,0.741,0.7451,0.7486,0.753,0.7569,0.7619,0.7661,0.7676,0.7691,0.7685,0.7684,0.769,0.7717,0.7711,0.7671,0.7671,0.7671,0.7671,0.7671,0.7671,0.7121,0.7152,0.718,0.7228,0.7262,0.73,0.7322,0.7354,0.7387,0.7435,0.7467,0.75,0.7544,0.759,0.7626,0.764,0.7652,0.7641,0.7659,0.7683,0.7688,0.7693,0.7688,0.7644,0.7644,0.7629,0.7629,0.7629]},{"header":{"parameterUnit":"m.s-1","parameterCategory":1,"la1":30.2991,"la2":30.254,"lo1":-89.0895,"lo2":-89.0444,"dy":0.0017,"dx":0.0017,"nx":28,"ny":28,"refTime":"2023-08-31T21:00:00:Z","depth":0,"parameterNumber":3,"parameterNumberName":"V-component_of_WINDS"},"data":[0,0,0,0,0,0,0,0,0,0,0,0,0,0,0,0,0,0,0,0,0,0,0,0,0,0,0,0,0,0,0,0,0,0,0,0,0,0,0,0,0,0,0,0,0,0,0,0,0,0,0,0,0,0,0,0,0,0,2.6422,2.6422,0,2.6385,2.6384,2.6384,2.6357,2.6357,2.6356,2.6356,2.6315,2.6314,2.6313,0,0,0,0,0,0,0,0,0,0,0,0,0,2.6468,2.6467,2.6422,2.6422,2.6421,2.6385,2.6384,2.6384,2.6357,2.6357,2.6356,2.6356,2.6315,2.6314,2.6313,0,0,0,0,0,0,0,0,0,0,0,0,0,2.6441,2.6467,2.6422,2.6404,2.6402,2.6385,2.6384,2.6384,2.6357,2.6357,2.6356,2.6356,2.6315,2.6314,2.6313,2.6311,0,0,2.6309,2.6308,0,0,0,0,0,0,0,0,2.6443,2.6439,2.6407,2.6405,2.6403,2.6375,2.6385,2.6359,2.6357,2.6374,2.6356,2.6356,2.6335,2.6332,2.6326,2.6309,2.6307,2.6309,2.6308,2.6307,2.6307,0,0,0,0,0,0,0,2.6444,2.6441,2.6407,2.6406,2.6404,2.6396,2.6392,2.638,2.6357,2.6372,2.637,2.6366,2.6334,2.6327,2.6324,2.6307,2.6309,2.6307,2.6307,2.6306,2.6286,2.6287,0,0,0,0,0,0,2.645,2.6443,2.6409,2.6406,2.6422,2.6396,2.6391,2.6384,2.6357,2.6352,2.6367,2.6365,2.6329,2.6326,2.6323,2.6318,2.6307,2.6306,2.6305,2.6286,2.6286,2.6287,0,0,0,0,0,0,2.6451,2.6447,2.641,2.6424,2.6419,2.6395,2.6388,2.6384,2.6377,2.6352,2.6348,2.6364,2.6329,2.6325,2.6314,2.6317,2.6305,2.6304,2.6286,2.6286,2.6287,2.631,0,0,0,0,0,0,2.6452,2.6447,2.6447,2.6424,2.6418,2.6403,2.6388,2.6383,2.6375,2.6373,2.6349,2.6345,2.6328,2.6316,2.6313,2.6315,2.6303,2.6285,2.6286,2.6286,2.6309,2.6311,2.6313,0,0,0,0,0,2.6454,2.6455,2.6447,2.6443,2.6417,2.6403,2.64,2.6382,2.6375,2.6374,2.6359,2.6345,2.6317,2.6316,2.6311,2.6313,2.6285,2.6286,2.6286,2.6308,2.6311,2.6313,0,0,0,0,0,0,2.6478,2.6451,2.6443,2.6436,2.6422,2.6399,2.6397,2.6385,2.6372,2.637,2.6348,2.6343,2.6335,2.6323,2.6321,2.6309,2.6299,2.6299,2.6317,2.632,2.6322,2.6324,2.6302,0,0,0,0,0,2.6482,2.6474,2.6451,2.6448,2.6441,2.6421,2.6414,2.6401,2.6385,2.6379,2.6362,2.6347,2.6334,2.6327,2.6314,2.6307,2.6301,2.6306,2.6308,2.631,2.631,2.6305,2.6307,2.6289,2.6289,2.6289,0,0,2.6491,2.6476,2.6472,2.6452,2.644,2.6431,2.6416,2.6407,2.6399,2.6377,2.6366,2.6354,2.6335,2.6326,2.6322,2.6316,2.6314,2.6311,2.6313,2.6311,2.6306,2.6307,2.6309,2.6289,2.6289,2.6289,0,0,2.6503,2.6491,2.6487,2.6475,2.6457,2.6443,2.6442,2.6421,2.6412,2.6401,2.6384,2.6375,2.6354,2.6341,2.6332,2.6339,2.6326,2.6336,2.6346,2.6342,2.6343,2.6344,2.6346,2.6347,2.6336,2.6336,2.6336,0,2.6517,2.6503,2.6486,2.6478,2.6469,2.645,2.6445,2.6434,2.6412,2.6406,2.6401,2.6374,2.636,2.6348,2.635,2.6344,2.6341,2.6338,2.6344,2.6345,2.6346,2.6347,2.6348,2.6337,2.6337,2.6337,2.6337,0,2.652,2.6511,2.651,2.649,2.6481,2.6475,2.6456,2.6449,2.6437,2.6424,2.6413,2.6395,2.6378,2.6375,2.6363,2.6361,2.6358,2.6349,2.6338,2.6349,2.635,2.6351,2.6339,2.6338,2.6338,2.6338,0,0,2.6545,2.6517,2.6516,2.6507,2.6486,2.6478,2.647,2.6455,2.6449,2.6435,2.6427,2.6411,2.6402,2.6391,2.6378,2.6374,2.638,2.6365,2.6365,2.6368,2.6376,2.6382,2.6383,2.6372,2.6372,2.6372,2.6377,0,2.6553,2.6539,2.6523,2.6514,2.6505,2.6487,2.6481,2.6467,2.6454,2.6444,2.6429,2.6418,2.6408,2.6401,2.6397,2.6381,2.6381,2.638,2.6364,2.6363,2.6368,2.6384,2.639,2.6396,2.6377,2.6377,2.6377,0,2.656,2.6547,2.6538,2.6518,2.6513,2.6508,2.6492,2.6483,2.6466,2.6457,2.6446,2.6432,2.6422,2.6414,2.64,2.6399,2.6392,2.6383,2.6382,2.6379,2.637,2.638,2.6397,2.6397,2.6378,2.6378,2.6378,0,2.6578,2.6559,2.655,2.6543,2.652,2.6516,2.6506,2.6489,2.6481,2.6467,2.6461,2.6446,2.6438,2.6426,2.6408,2.6404,2.6395,2.6385,2.6386,2.6387,2.6384,2.6384,2.6399,2.6381,2.6381,2.6381,2.6381,0,2.6587,2.6582,2.6558,2.6553,2.6546,2.6528,2.6522,2.651,2.6495,2.6487,2.647,2.6462,2.644,2.6429,2.6415,2.6405,2.6401,2.6393,2.6389,2.6394,2.6395,2.6387,2.6386,2.6381,2.6381,2.6381,2.6381,0,2.6606,2.659,2.6579,2.6558,2.6553,2.6549,2.653,2.6524,2.6511,2.65,2.6497,2.6476,2.6462,2.6444,2.6424,2.6415,2.6406,2.64,2.6412,2.6409,2.6411,2.6411,2.6421,2.6421,2.6404,2.6404,2.6404,0,2.6612,2.6608,2.6587,2.658,2.6571,2.6561,2.6552,2.6534,2.6526,2.6507,2.6503,2.6489,2.6476,2.6455,2.6437,2.6422,2.6416,2.642,2.6413,2.6418,2.6414,2.6415,2.6414,2.6422,2.6422,2.6422,2.6422,0,2.6626,2.6618,2.6607,2.6594,2.6584,2.6573,2.656,2.6555,2.6535,2.6526,2.6513,2.6503,2.6484,2.6469,2.6452,2.644,2.6427,2.6425,2.6424,2.6428,2.6435,2.643,2.6415,2.6424,2.6424,2.6424,2.6424,2.6424,2.6637,2.6633,2.6617,2.6605,2.6594,2.6583,2.6576,2.6563,2.6551,2.6535,2.6525,2.6512,2.6495,2.647,2.6459,2.6448,2.6443,2.6442,2.6441,2.6441,2.6443,2.6438,2.6445,2.6445,2.6445,2.6445,2.6444,0,2.6649,2.6638,2.6628,2.6611,2.6602,2.6593,2.6578,2.657,2.656,2.6545,2.6534,2.6518,2.6504,2.6485,2.647,2.6464,2.6458,2.6461,2.646,2.6458,2.6448,2.645,2.6466,2.6466,2.6466,2.6466,2.6466,2.6466,2.6654,2.6645,2.6636,2.6621,2.661,2.6598,2.659,2.6579,2.6568,2.6552,2.654,2.6529,2.6513,2.6496,2.6482,2.6477,2.6471,2.6476,2.6469,2.646,2.6458,2.6456,2.6458,2.6475,2.6475,2.6479,2.6479,2.6479]}]]